Weather History for Lincoln, NE

Change the Weather History Date:

Wednesday, October 9, 2013

  Actual Average Record
Temperature  
Mean Temperature 66 °F 56 °F  
Max Temperature 79 °F 69 °F 90 °F (1928)
Min Temperature 52 °F 43 °F 18 °F (2000)
Degree Days  
Heating Degree Days 0 10  
Month to date heating degree days 43 77  
Since 1 July heating degree days 74 175  
Cooling Degree Days 1 1  
Month to date cooling degree days 15 9  
Year to date cooling degree days 1233 1167  
Growing Degree Days 16 (Base 50)    
Moisture  
Dew Point 48 °F    
Average Humidity 54    
Maximum Humidity 71    
Minimum Humidity 37    
Precipitation  
Precipitation 0.00 in 0.06 in 1.73 in (1949)
Month to date precipitation 2.06 0.66  
Year to date precipitation 24.50 25.26  
Snow  
Snow 0.00 in 0.00 in - ()
Month to date snowfall 0.0 0.0  
Since 1 July snowfall 0.0 T  
Snow Depth 0.00 in    
Sea Level Pressure  
Sea Level Pressure 29.94 in    
Wind  
Wind Speed 14 mph (SSE)    
Max Wind Speed 23 mph    
Max Gust Speed 31 mph    
Visibility 10 miles    
Events      
T = Trace of Precipitation, MM = Missing Value Source: NWS Daily Summary

Daily Weather History Graph

Daily Weather History Graph

Search for Another Location

Airport:

Trip Planner

Search our weather history database for the weather conditions in past years. The results will help you decide how hot, cold, wet, or windy it might be!

Date:

Astronomy

Oct. 09, 2013 Rise Set
Actual Time 7:32 AM CDT 6:55 PM CDT
Civil Twilight 7:04 AM CDT 7:22 PM CDT
Nautical Twilight 6:32 AM CDT 7:54 PM CDT
Astronomical Twilight 6:01 AM CDT 8:26 PM CDT
Moon 12:30 PM CDT (10/9) 10:29 PM CDT (10/9)
Length of Visible Light 12h 18m
Length of Day
11h 23m
Waxing Crescent, 25% of the Moon is Illuminated
Oct 9
Waxing Crescent
Oct 11
First Quarter
Oct 18
Full
Oct 26
Last Quarter
Nov 3
New

Hourly Weather History & Observations

Time (CDT) Temp. Dew Point Humidity Pressure Visibility Wind Dir Wind Speed Gust Speed Precip Events Conditions
12:54 AM 57.0 °F 45.0 °F 64% 29.94 in 10.0 mi South 12.7 mph - N/A   Clear
1:54 AM 57.0 °F 45.0 °F 64% 29.94 in 10.0 mi South 12.7 mph - N/A   Clear
2:54 AM 55.0 °F 45.0 °F 69% 29.95 in 10.0 mi South 9.2 mph - N/A   Clear
3:54 AM 54.0 °F 45.0 °F 72% 29.94 in 10.0 mi SSE 11.5 mph - N/A   Clear
4:54 AM 54.0 °F 45.0 °F 72% 29.94 in 10.0 mi South 9.2 mph - N/A   Clear
5:54 AM 54.0 °F 45.0 °F 72% 29.95 in 10.0 mi South 10.4 mph - N/A   Clear
6:54 AM 53.1 °F 45.0 °F 74% 29.96 in 10.0 mi South 8.1 mph - N/A   Clear
7:54 AM 53.1 °F 45.0 °F 74% 29.97 in 10.0 mi SSE 9.2 mph - N/A   Clear
8:54 AM 57.0 °F 46.9 °F 69% 29.97 in 10.0 mi SSE 12.7 mph - N/A   Clear
9:54 AM 63.0 °F 48.9 °F 60% 29.96 in 10.0 mi South 13.8 mph - N/A   Clear
10:54 AM 69.1 °F 48.9 °F 49% 29.97 in 10.0 mi South 21.9 mph - N/A   Clear
11:54 AM 72.0 °F 48.9 °F 44% 29.96 in 10.0 mi South 20.7 mph 26.5 mph N/A   Clear
12:54 PM 75.0 °F 50.0 °F 41% 29.96 in 10.0 mi SSE 19.6 mph 24.2 mph N/A   Clear
1:54 PM 77.0 °F 50.0 °F 39% 29.94 in 10.0 mi SSE 16.1 mph - N/A   Clear
2:54 PM 78.1 °F 50.0 °F 37% 29.91 in 10.0 mi SSE 17.3 mph 25.3 mph N/A   Clear
3:54 PM 79.0 °F 50.0 °F 36% 29.90 in 10.0 mi SSE 19.6 mph 26.5 mph N/A   Clear
4:54 PM 78.1 °F 50.0 °F 37% 29.90 in 10.0 mi SSE 16.1 mph 26.5 mph N/A   Clear
5:54 PM 75.9 °F 50.0 °F 40% 29.90 in 10.0 mi SSE 18.4 mph 24.2 mph N/A   Clear
6:54 PM 72.0 °F 50.0 °F 46% 29.92 in 10.0 mi SSE 12.7 mph 20.7 mph N/A   Clear
7:54 PM 70.0 °F 50.0 °F 49% 29.94 in 10.0 mi SSE 16.1 mph 21.9 mph N/A   Clear
8:54 PM 66.9 °F 50.0 °F 54% 29.95 in 10.0 mi SSE 13.8 mph - N/A   Clear
9:54 PM 64.9 °F 50.0 °F 58% 29.96 in 10.0 mi SSE 12.7 mph - N/A   Clear
10:54 PM 62.1 °F 50.0 °F 65% 29.97 in 10.0 mi SSE 11.5 mph - N/A   Clear
11:54 PM 60.1 °F 50.0 °F 69% 29.97 in 10.0 mi SSE 10.4 mph - N/A   Clear